Torna al catalogo

FENGYUN 1C DEB

AttivoSSO
NORAD 36680·DEBRIS·🇨🇳 China

Lanciato May 10, 1999 da Taiyuan Satellite Launch Center

Loading…

Prossimi Passaggi (prossime 24 ore)

TLE

AggiornatoSource: Space-Track

Epoca: Sep 14, 2026, 17:52 UTC

1 36680U 99025DZA 26257.74472205  .00000464  00000-0  20307-3 0  9990
2 36680  98.5689 245.5836 0188011 171.2281   3.7178 14.19200855682113

Traccia FENGYUN 1C DEB in tempo reale con AllMySat

Download on the App Store